STARLINK-11569, 62910

Orbit data source: Space-Track

STARLINK-11569, 62910 is a payload satellite owned by SpaceX/Seattle (US) in LEO that was launched on Sat, 08 Feb 2025 UTC via an FALCON 9 launch vehicle from the Air Force Eastern Test Range (AFETR). Payload-class satellites include a variety of spacecraft equipped with specific instruments for various scientific and technological missions. These include communications satellites like Starlink; space stations such as the ISS; scientific satellites like the Hubble; Earth observation satellites from companies like Planet Labs, Umbra, and HawkEye 360; GPS; miniature CubeSats for education and research; and military/defense satellites.

Loading next visibility...
Identifier
62910, 2025-027D
Orbit
LEO
Country
Flag of USUS
Related business
Manufacturer
SpaceX/Seattle
Mission
Operational Commercial Communications
Bus & Motor
STARLINK V2MD, Unknown motor
Mass
960 kg wet, ~910 kg dry
Launch date (UTC)
2025-02-08 (9 months ago)
Launch vehicle
FALCON 9
Launch site
Air Force Eastern Test Range (AFETR)
Object type
Payload
Rocket body
Debris
Shape & HBR
Box + 2 Pan, 18.1 m
Radar Cross Section
36.964 m², Large (>1 m²)

Expand to show TLE details & history
Last TLE update: 1 day ago

TLE from 1 day ago
0 STARLINK-11569
1 62910U 25027D   25301.05688432  .00307926  00000-0  23128-2 0  9996
2 62910  42.9993  67.0237 0001162   9.8090 350.2800 15.70866441 42294
Epoch: 2025-10-28T01:21Z
TLE epoch observation values (Epoch: 2025-10-28T01:21:54.805Z)
Latitude
-0.00002°
Longitude
9.89548°
Altitude
355.419 km
Speed
7.698 km/s
True Right ascension
04h 28m 05s
True Declination
0° 00' 00"
Sunlit
Object was in full shadow at epoch
Visualization orbit readout
Latitude
Unknown
Longitude
Unknown
Altitude
Unknown
Speed
Unknown
Apparent Right ascension
Unknown
Apparent Declination
Unknown
Sunlit
N/A
Visualization observer readout
Local Sidereal Time
01:19:45
Azimuth
Unknown
Elevation
Unknown
Doppler factor
Unknown
Orbital elements
Apogee altitude
359.184 km
Perigee altitude
357.618 km
Semi-major axis
6,736.538 km
Eccentricity
0.00012
Inclination
42.9993°
RAAN
67.0237°
Arg. of periapsis
9.809°
True anomaly
350.27775°
Mean anomaly
350.28°
Eccentric anomaly
350.27888°
Mean motion
3.92544 °/min
Orbital period
91.71 mins
BSTAR
0.0023128
Loading maneuver chart data...
Computing Atmospheric mass density...
Loading historical data...
Loading historical data...
Loading historical data...
Loading historical data...
Loading historical data...
Loading historical data...
Loading historical data...

Documentation

Showing up to 5 results
|